| time (UTC) | temp F | wind direction | speed MPH | gust MPH | rain 1hr in | rain 24hr in | rain mn in | humidity % | barometer mb |
| 20260510065551 | 58 | 298 | 3.0 | 5.0 | 0.00 | 0.00 | 0.00 | 66 | 1013.0 |
| 20260510065048 | 58 | 342 | 3.0 | 5.0 | 0.00 | 0.00 | 0.00 | 69 | 1012.9 |
| 20260510064559 | 59 | 301 | 2.0 | 6.0 | 0.00 | 0.00 | 0.00 | 65 | 1013.0 |
| 20260510064047 | 61 | 281 | 1.0 | 6.0 | 0.00 | 0.00 | 0.00 | 63 | 1013.0 |
| 20260510063548 | 61 | 304 | 3.0 | 5.0 | 0.00 | 0.00 | 0.00 | 59 | 1013.0 |
| 20260510063051 | 61 | 283 | 1.0 | 6.0 | 0.00 | 0.00 | 0.00 | 60 | 1013.0 |
| 20260510062551 | 62 | 292 | 3.0 | 6.0 | 0.00 | 0.00 | 0.00 | 60 | 1013.0 |
| 20260510062048 | 61 | 323 | 3.0 | 9.0 | 0.00 | 0.00 | 0.00 | 63 | 1012.9 |
| 20260510061550 | 62 | 313 | 3.0 | 9.0 | 0.00 | 0.00 | 0.00 | 61 | 1013.0 |
| 20260510061049 | 60 | 272 | 3.0 | 6.0 | 0.00 | 0.00 | 0.00 | 63 | 1013.0 |
| 20260510060551 | 59 | 0 | 0.0 | 3.0 | 0.00 | 0.00 | 0.00 | 67 | 1013.0 |
| 20260510060049 | 58 | 279 | 0.0 | 6.0 | 0.00 | 0.00 | 0.00 | 70 | 1013.1 |
| 20260510055547 | 57 | 0 | 1.0 | 6.0 | 0.00 | 0.00 | 0.00 | 70 | 1013.1 |
| 20260510055048 | 56 | 153 | 0.0 | 3.0 | 0.00 | 0.00 | 0.00 | 74 | 1013.0 |
| 20260510054556 | 56 | 0 | 0.0 | 3.0 | 0.00 | 0.00 | 0.00 | 74 | 1012.9 |
| 20260510054048 | 56 | 0 | 0.0 | 2.0 | 0.00 | 0.00 | 0.00 | 76 | 1012.9 |
| 20260510053548 | 57 | 0 | 0.0 | 4.0 | 0.00 | 0.00 | 0.00 | 76 | 1012.8 |
| 20260510053054 | 57 | 233 | 1.0 | 5.0 | 0.00 | 0.00 | 0.00 | 74 | 1012.8 |
| 20260510052550 | 56 | 284 | 0.0 | 5.0 | 0.00 | 0.00 | 0.00 | 76 | 1012.8 |
| 20260510052048 | 56 | 234 | 1.0 | 5.0 | 0.00 | 0.00 | 0.00 | 76 | 1012.9 |
| 20260510051606 | 55 | 0 | 0.0 | 4.0 | 0.00 | 0.00 | 0.00 | 78 | 1013.0 |
| 20260510051047 | 55 | 0 | 0.0 | 4.0 | 0.00 | 0.00 | 0.00 | 80 | 1012.9 |
| 20260510050548 | 53 | 0 | 1.0 | 4.0 | 0.00 | 0.00 | 0.00 | 83 | 1013.0 |
| 20260510050058 | 53 | 0 | 1.0 | 4.0 | 0.00 | 0.00 | 0.00 | 89 | 1013.1 |
| 20260510045548 | 52 | 327 | 0.0 | 3.0 | 0.00 | 0.00 | 0.00 | 90 | 1013.0 |
| 20260510045049 | 52 | 0 | 1.0 | 3.0 | 0.00 | 0.00 | 0.00 | 90 | 1013.0 |
| 20260510044602 | 52 | 0 | 0.0 | 0.0 | 0.00 | 0.00 | 0.00 | 90 | 1013.1 |
| 20260510044048 | 52 | 0 | 0.0 | 0.0 | 0.00 | 0.00 | 0.00 | 89 | 1013.2 |
| 20260510043548 | 53 | 0 | 0.0 | 0.0 | 0.00 | 0.00 | 0.00 | 89 | 1013.2 |
| 20260510043052 | 53 | 0 | 0.0 | 0.0 | 0.00 | 0.00 | 0.00 | 90 | 1013.2 |
| 20260510042551 | 53 | 0 | 0.0 | 0.0 | 0.00 | 0.00 | 0.00 | 90 | 1013.2 |
| 20260510042047 | 53 | 0 | 0.0 | 0.0 | 0.00 | 0.00 | 0.00 | 90 | 1013.2 |
| 20260510041552 | 53 | 0 | 0.0 | 0.0 | 0.00 | 0.00 | 0.00 | 91 | 1013.3 |
| 20260510041048 | 52 | 0 | 0.0 | 0.0 | 0.00 | 0.00 | 0.00 | 90 | 1013.3 |
| 20260510040550 | 53 | 0 | 0.0 | 0.0 | 0.00 | 0.00 | 0.00 | 90 | 1013.2 |
| 20260510040056 | 53 | 0 | 0.0 | 0.0 | 0.00 | 0.00 | 0.00 | 89 | 1013.2 |
| 20260510035550 | 53 | 0 | 0.0 | 0.0 | 0.00 | 0.00 | 0.00 | 89 | 1013.2 |
| 20260510035052 | 53 | 0 | 0.0 | 0.0 | 0.00 | 0.00 | 0.00 | 88 | 1013.2 |
| 20260510034550 | 54 | 0 | 0.0 | 0.0 | 0.00 | 0.00 | 0.00 | 87 | 1013.2 |
| 20260510034048 | 54 | 0 | 0.0 | 0.0 | 0.00 | 0.00 | 0.00 | 87 | 1013.2 |
| 20260510033548 | 54 | 0 | 0.0 | 0.0 | 0.00 | 0.00 | 0.00 | 87 | 1013.2 |
| 20260510033109 | 55 | 0 | 0.0 | 0.0 | 0.00 | 0.00 | 0.00 | 86 | 1013.1 |
| 20260510032549 | 55 | 0 | 0.0 | 0.0 | 0.00 | 0.00 | 0.00 | 85 | 1013.1 |
| 20260510032047 | 55 | 0 | 0.0 | 0.0 | 0.00 | 0.00 | 0.00 | 85 | 1013.0 |
| 20260510031551 | 56 | 0 | 0.0 | 0.0 | 0.00 | 0.00 | 0.00 | 84 | 1013.0 |
| 20260510031047 | 56 | 0 | 0.0 | 0.0 | 0.00 | 0.00 | 0.00 | 84 | 1013.1 |
| 20260510030548 | 57 | 0 | 0.0 | 0.0 | 0.00 | 0.00 | 0.00 | 83 | 1013.1 |
| 20260510025548 | 57 | 0 | 0.0 | 0.0 | 0.00 | 0.00 | 0.00 | 82 | 1013.0 |
| 20260510025049 | 58 | 0 | 0.0 | 0.0 | 0.00 | 0.00 | 0.00 | 82 | 1012.9 |
| 20260510024555 | 58 | 0 | 0.0 | 0.0 | 0.00 | 0.00 | 0.00 | 82 | 1013.0 |
| 20260510024049 | 58 | 0 | 0.0 | 1.0 | 0.00 | 0.00 | 0.00 | 82 | 1013.0 |
| 20260510023549 | 58 | 0 | 0.0 | 2.0 | 0.00 | 0.00 | 0.00 | 81 | 1012.9 |
| 20260510023055 | 58 | 0 | 0.0 | 2.0 | 0.00 | 0.00 | 0.00 | 80 | 1012.8 |
| 20260510022549 | 59 | 0 | 0.0 | 3.0 | 0.00 | 0.00 | 0.00 | 80 | 1012.7 |
| 20260510022049 | 59 | 0 | 0.0 | 3.0 | 0.00 | 0.00 | 0.00 | 80 | 1012.5 |
| 20260510021558 | 59 | 294 | 1.0 | 3.0 | 0.00 | 0.00 | 0.00 | 78 | 1012.5 |
| 20260510021048 | 60 | 320 | 1.0 | 3.0 | 0.00 | 0.00 | 0.00 | 77 | 1012.4 |
| 20260510020549 | 60 | 0 | 0.0 | 2.0 | 0.00 | 0.00 | 0.00 | 76 | 1012.4 |
| 20260510020050 | 60 | 294 | 1.0 | 4.0 | 0.00 | 0.00 | 0.00 | 76 | 1012.4 |
| 20260510015550 | 60 | 306 | 1.0 | 5.0 | 0.00 | 0.00 | 0.00 | 77 | 1012.2 |
| 20260510015049 | 61 | 314 | 2.0 | 5.0 | 0.00 | 0.00 | 0.00 | 76 | 1012.1 |
| 20260510014556 | 61 | 313 | 3.0 | 5.0 | 0.00 | 0.00 | 0.00 | 75 | 1011.9 |
| 20260510014049 | 61 | 299 | 2.0 | 4.0 | 0.00 | 0.00 | 0.00 | 74 | 1011.7 |
| 20260510013549 | 61 | 288 | 2.0 | 4.0 | 0.00 | 0.00 | 0.00 | 74 | 1011.7 |
| 20260510013051 | 61 | 301 | 1.0 | 3.0 | 0.00 | 0.00 | 0.00 | 74 | 1011.6 |
| 20260510012552 | 61 | 298 | 2.0 | 3.0 | 0.00 | 0.00 | 0.00 | 74 | 1011.6 |
| 20260510012052 | 62 | 317 | 2.0 | 3.0 | 0.00 | 0.00 | 0.00 | 73 | 1011.5 |
| 20260510011552 | 63 | 296 | 2.0 | 3.0 | 0.00 | 0.00 | 0.00 | 71 | 1011.6 |
| 20260510011049 | 63 | 290 | 1.0 | 3.0 | 0.00 | 0.00 | 0.00 | 70 | 1011.5 |
| 20260510010548 | 64 | 0 | 1.0 | 3.0 | 0.00 | 0.00 | 0.00 | 69 | 1011.5 |
| 20260510010050 | 64 | 303 | 1.0 | 3.0 | 0.00 | 0.00 | 0.00 | 68 | 1011.4 |
| 20260510005551 | 65 | 321 | 1.0 | 3.0 | 0.00 | 0.00 | 0.00 | 67 | 1011.3 |
| 20260510005049 | 64 | 313 | 2.0 | 3.0 | 0.00 | 0.00 | 0.00 | 67 | 1011.1 |
| 20260510004552 | 65 | 295 | 1.0 | 4.0 | 0.00 | 0.00 | 0.00 | 66 | 1011.1 |
| 20260510004049 | 65 | 295 | 1.0 | 4.0 | 0.00 | 0.00 | 0.00 | 66 | 1010.9 |
| 20260510003549 | 66 | 303 | 1.0 | 4.0 | 0.00 | 0.00 | 0.00 | 64 | 1010.9 |
| 20260510003054 | 66 | 0 | 1.0 | 2.0 | 0.00 | 0.00 | 0.00 | 64 | 1010.6 |
| 20260510002549 | 66 | 305 | 1.0 | 3.0 | 0.00 | 0.00 | 0.00 | 63 | 1010.6 |
| 20260510002048 | 67 | 316 | 0.0 | 3.0 | 0.00 | 0.00 | 0.00 | 62 | 1010.6 |
| 20260510001551 | 68 | 316 | 0.0 | 3.0 | 0.00 | 0.00 | 0.00 | 61 | 1010.6 |
| 20260510001049 | 68 | 283 | 0.0 | 2.0 | 0.00 | 0.00 | 0.00 | 59 | 1010.6 |
| 20260510000548 | 69 | 128 | 0.0 | 3.0 | 0.00 | 0.00 | 0.00 | 58 | 1010.5 |
| 20260510000050 | 69 | 0 | 0.0 | 3.0 | 0.00 | 0.00 | 0.00 | 57 | 1010.4 |
| 20260509235550 | 70 | 155 | 1.0 | 4.0 | 0.00 | 0.00 | 0.00 | 56 | 1010.3 |
| 20260509235049 | 70 | 177 | 1.0 | 4.0 | 0.00 | 0.00 | 0.00 | 56 | 1010.3 |
| 20260509234550 | 70 | 204 | 1.0 | 5.0 | 0.00 | 0.00 | 0.00 | 55 | 1010.3 |
| 20260509234049 | 71 | 0 | 1.0 | 5.0 | 0.00 | 0.00 | 0.00 | 55 | 1010.2 |
| 20260509233551 | 71 | 167 | 1.0 | 5.0 | 0.00 | 0.00 | 0.00 | 54 | 1010.2 |
| 20260509233050 | 71 | 188 | 1.0 | 5.0 | 0.00 | 0.00 | 0.00 | 53 | 1010.2 |
| 20260509232548 | 72 | 161 | 1.0 | 5.0 | 0.00 | 0.00 | 0.00 | 53 | 1010.2 |
| 20260509232048 | 72 | 0 | 1.0 | 5.0 | 0.00 | 0.00 | 0.00 | 53 | 1010.2 |
| 20260509231550 | 72 | 193 | 1.0 | 6.0 | 0.00 | 0.00 | 0.00 | 53 | 1010.2 |
| 20260509231048 | 72 | 175 | 3.0 | 8.0 | 0.00 | 0.00 | 0.00 | 53 | 1010.2 |
| 20260509230547 | 72 | 172 | 2.0 | 8.0 | 0.00 | 0.00 | 0.00 | 52 | 1010.2 |
| 20260509230058 | 72 | 226 | 3.0 | 11.0 | 0.00 | 0.00 | 0.00 | 52 | 1010.2 |
| 20260509225549 | 72 | 223 | 3.0 | 11.0 | 0.00 | 0.00 | 0.00 | 51 | 1010.1 |
| 20260509225050 | 72 | 148 | 3.0 | 10.0 | 0.00 | 0.00 | 0.00 | 51 | 1010.1 |
| 20260509224558 | 72 | 126 | 2.0 | 10.0 | 0.00 | 0.00 | 0.00 | 52 | 1010.1 |
| 20260509224052 | 72 | 196 | 3.0 | 8.0 | 0.00 | 0.00 | 0.00 | 51 | 1010.2 |
| 20260509223548 | 72 | 220 | 1.0 | 7.0 | 0.00 | 0.00 | 0.00 | 51 | 1010.2 |
| 20260509223052 | 72 | 136 | 2.0 | 9.0 | 0.00 | 0.00 | 0.00 | 51 | 1010.3 |
| 20260509222549 | 72 | 222 | 1.0 | 9.0 | 0.00 | 0.00 | 0.00 | 50 | 1010.3 |
| 20260509222047 | 73 | 158 | 2.0 | 9.0 | 0.00 | 0.00 | 0.00 | 50 | 1010.2 |
| 20260509221550 | 73 | 192 | 2.0 | 10.0 | 0.00 | 0.00 | 0.00 | 51 | 1010.3 |
| 20260509221047 | 73 | 159 | 1.0 | 10.0 | 0.00 | 0.00 | 0.00 | 51 | 1010.1 |
| 20260509220548 | 73 | 111 | 2.0 | 10.0 | 0.00 | 0.00 | 0.00 | 50 | 1010.2 |
| 20260509220052 | 73 | 195 | 3.0 | 6.0 | 0.00 | 0.00 | 0.00 | 50 | 1010.2 |
| 20260509215548 | 73 | 115 | 1.0 | 7.0 | 0.00 | 0.00 | 0.00 | 51 | 1010.1 |
| 20260509215049 | 73 | 283 | 2.0 | 7.0 | 0.00 | 0.00 | 0.00 | 52 | 1010.2 |
| 20260509214559 | 73 | 50 | 3.0 | 7.0 | 0.00 | 0.00 | 0.00 | 50 | 1010.2 |
| 20260509214048 | 73 | 351 | 3.0 | 9.0 | 0.00 | 0.00 | 0.00 | 50 | 1010.0 |
| 20260509213550 | 73 | 69 | 2.0 | 9.0 | 0.00 | 0.00 | 0.00 | 50 | 1010.0 |
| 20260509213126 | 73 | 107 | 3.0 | 10.0 | 0.00 | 0.00 | 0.00 | 51 | 1010.0 |
| 20260509212549 | 72 | 147 | 4.0 | 10.0 | 0.00 | 0.00 | 0.00 | 51 | 1010.1 |
| 20260509212048 | 72 | 126 | 5.0 | 10.0 | 0.00 | 0.00 | 0.00 | 50 | 1010.1 |
| 20260509211553 | 72 | 132 | 3.0 | 8.0 | 0.00 | 0.00 | 0.00 | 51 | 1010.0 |
| 20260509211048 | 72 | 226 | 2.0 | 8.0 | 0.00 | 0.00 | 0.00 | 50 | 1009.9 |
| 20260509210549 | 72 | 352 | 1.0 | 5.0 | 0.00 | 0.00 | 0.00 | 50 | 1010.0 |
| 20260509205549 | 72 | 302 | 1.0 | 7.0 | 0.00 | 0.00 | 0.00 | 49 | 1010.0 |
| 20260509205047 | 72 | 288 | 2.0 | 7.0 | 0.00 | 0.00 | 0.00 | 51 | 1010.0 |
| 20260509204550 | 72 | 198 | 2.0 | 9.0 | 0.00 | 0.00 | 0.00 | 49 | 1009.8 |
| 20260509204049 | 73 | 132 | 2.0 | 12.0 | 0.00 | 0.00 | 0.00 | 49 | 1009.8 |
| 20260509203548 | 73 | 123 | 3.0 | 12.0 | 0.00 | 0.00 | 0.00 | 48 | 1009.6 |
| 20260509203053 | 73 | 185 | 8.0 | 12.0 | 0.00 | 0.00 | 0.00 | 47 | 1009.6 |
| 20260509202549 | 73 | 147 | 3.0 | 10.0 | 0.00 | 0.00 | 0.00 | 49 | 1009.7 |
| 20260509202048 | 73 | 176 | 5.0 | 10.0 | 0.00 | 0.00 | 0.00 | 48 | 1009.7 |
| 20260509201553 | 73 | 148 | 3.0 | 8.0 | 0.00 | 0.00 | 0.00 | 46 | 1009.8 |
| 20260509201048 | 73 | 128 | 2.0 | 11.0 | 0.00 | 0.00 | 0.00 | 46 | 1009.8 |
| 20260509200550 | 74 | 327 | 3.0 | 12.0 | 0.00 | 0.00 | 0.00 | 45 | 1009.8 |
| 20260509200103 | 74 | 169 | 5.0 | 12.0 | 0.00 | 0.00 | 0.00 | 45 | 1009.9 |
| 20260509195548 | 74 | 258 | 5.0 | 11.0 | 0.00 | 0.00 | 0.00 | 45 | 1009.9 |
| 20260509195052 | 74 | 211 | 2.0 | 12.0 | 0.00 | 0.00 | 0.00 | 46 | 1009.8 |
| 20260509194549 | 72 | 35 | 3.0 | 12.0 | 0.00 | 0.00 | 0.00 | 48 | 1009.9 |
| 20260509194048 | 72 | 171 | 4.0 | 12.0 | 0.00 | 0.00 | 0.00 | 48 | 1010.2 |
| 20260509193548 | 71 | 138 | 1.0 | 8.0 | 0.00 | 0.00 | 0.00 | 50 | 1010.3 |
| 20260509193049 | 71 | 205 | 2.0 | 12.0 | 0.00 | 0.00 | 0.00 | 52 | 1010.4 |
| 20260509192550 | 71 | 198 | 4.0 | 12.0 | 0.00 | 0.00 | 0.00 | 49 | 1010.4 |
| 20260509192049 | 71 | 167 | 3.0 | 12.0 | 0.00 | 0.00 | 0.00 | 51 | 1010.4 |
| 20260509191553 | 71 | 173 | 5.0 | 11.0 | 0.00 | 0.00 | 0.00 | 49 | 1010.5 |
| 20260509191048 | 72 | 153 | 4.0 | 10.0 | 0.00 | 0.00 | 0.00 | 49 | 1010.6 |
| 20260509190548 | 72 | 142 | 3.0 | 12.0 | 0.00 | 0.00 | 0.00 | 49 | 1010.6 |
| 20260509190056 | 72 | 165 | 5.0 | 12.0 | 0.00 | 0.00 | 0.00 | 48 | 1010.6 |
| 20260509185548 | 73 | 165 | 6.0 | 12.0 | 0.00 | 0.00 | 0.00 | 48 | 1010.7 |
| 20260509185048 | 73 | 148 | 4.0 | 10.0 | 0.00 | 0.00 | 0.00 | 48 | 1010.7 |
| 20260509184558 | 73 | 238 | 2.0 | 11.0 | 0.00 | 0.00 | 0.00 | 48 | 1010.9 |
| 20260509184049 | 74 | 190 | 3.0 | 11.0 | 0.00 | 0.00 | 0.00 | 45 | 1010.9 |
| 20260509183548 | 73 | 232 | 4.0 | 11.0 | 0.00 | 0.00 | 0.00 | 48 | 1010.7 |
| 20260509183051 | 73 | 282 | 3.0 | 11.0 | 0.00 | 0.00 | 0.00 | 48 | 1010.9 |
| 20260509182550 | 72 | 148 | 5.0 | 11.0 | 0.00 | 0.00 | 0.00 | 47 | 1010.9 |
| 20260509182047 | 71 | 163 | 4.0 | 13.0 | 0.00 | 0.00 | 0.00 | 51 | 1011.1 |
| 20260509181557 | 71 | 225 | 5.0 | 13.0 | 0.00 | 0.00 | 0.00 | 49 | 1011.2 |
| 20260509181049 | 72 | 96 | 4.0 | 13.0 | 0.00 | 0.00 | 0.00 | 47 | 1011.2 |
| 20260509180549 | 72 | 149 | 5.0 | 13.0 | 0.00 | 0.00 | 0.00 | 49 | 1011.5 |
| 20260509180051 | 72 | 188 | 3.0 | 11.0 | 0.00 | 0.00 | 0.00 | 51 | 1011.5 |
| 20260509175548 | 71 | 331 | 5.0 | 11.0 | 0.00 | 0.00 | 0.00 | 51 | 1011.7 |
| 20260509175048 | 71 | 208 | 3.0 | 10.0 | 0.00 | 0.00 | 0.00 | 53 | 1011.7 |
| 20260509174554 | 71 | 107 | 4.0 | 10.0 | 0.00 | 0.00 | 0.00 | 50 | 1011.7 |
| 20260509174048 | 71 | 360 | 4.0 | 11.0 | 0.00 | 0.00 | 0.00 | 54 | 1011.7 |
| 20260509173547 | 70 | 113 | 4.0 | 17.0 | 0.00 | 0.00 | 0.00 | 55 | 1011.8 |
| 20260509173050 | 69 | 192 | 6.0 | 17.0 | 0.00 | 0.00 | 0.00 | 57 | 1011.8 |
| 20260509172549 | 69 | 165 | 5.0 | 16.0 | 0.00 | 0.00 | 0.00 | 55 | 1012.0 |
| 20260509172052 | 70 | 280 | 4.0 | 13.0 | 0.00 | 0.00 | 0.00 | 56 | 1012.1 |
| 20260509171553 | 70 | 180 | 5.0 | 16.0 | 0.00 | 0.00 | 0.00 | 56 | 1012.0 |
| 20260509171047 | 70 | 94 | 3.0 | 16.0 | 0.00 | 0.00 | 0.00 | 56 | 1012.0 |
| 20260509170548 | 69 | 134 | 8.0 | 19.0 | 0.00 | 0.00 | 0.00 | 57 | 1012.2 |
| 20260509170052 | 69 | 139 | 8.0 | 19.0 | 0.00 | 0.00 | 0.00 | 57 | 1012.1 |
| 20260509165548 | 69 | 165 | 5.0 | 12.0 | 0.00 | 0.00 | 0.00 | 58 | 1012.1 |
| 20260509165047 | 68 | 180 | 5.0 | 16.0 | 0.00 | 0.00 | 0.00 | 59 | 1011.9 |
| 20260509164553 | 68 | 157 | 5.0 | 18.0 | 0.00 | 0.00 | 0.00 | 57 | 1012.0 |
| 20260509164047 | 68 | 91 | 7.0 | 18.0 | 0.00 | 0.00 | 0.00 | 58 | 1011.9 |
| 20260509163548 | 68 | 155 | 7.0 | 15.0 | 0.00 | 0.00 | 0.00 | 57 | 1012.1 |
| 20260509163051 | 68 | 128 | 6.0 | 15.0 | 0.00 | 0.00 | 0.00 | 58 | 1012.2 |
| 20260509162551 | 68 | 173 | 4.0 | 10.0 | 0.00 | 0.00 | 0.00 | 60 | 1012.1 |
| 20260509162047 | 67 | 30 | 3.0 | 9.0 | 0.00 | 0.00 | 0.00 | 58 | 1012.1 |
| 20260509161549 | 67 | 211 | 3.0 | 9.0 | 0.00 | 0.00 | 0.00 | 57 | 1012.1 |
| 20260509161052 | 67 | 186 | 3.0 | 13.0 | 0.00 | 0.00 | 0.00 | 57 | 1012.0 |
| 20260509160550 | 67 | 113 | 4.0 | 13.0 | 0.00 | 0.00 | 0.00 | 59 | 1012.0 |
| 20260509160051 | 67 | 294 | 3.0 | 9.0 | 0.00 | 0.00 | 0.00 | 56 | 1012.0 |
| 20260509155548 | 67 | 167 | 3.0 | 13.0 | 0.00 | 0.00 | 0.00 | 57 | 1012.1 |
| 20260509155047 | 67 | 161 | 3.0 | 13.0 | 0.00 | 0.00 | 0.00 | 56 | 1012.0 |
| 20260509154551 | 68 | 352 | 3.0 | 11.0 | 0.00 | 0.00 | 0.00 | 55 | 1012.1 |
| 20260509154048 | 68 | 307 | 2.0 | 9.0 | 0.00 | 0.00 | 0.00 | 57 | 1012.2 |
| 20260509153554 | 68 | 0 | 2.0 | 9.0 | 0.00 | 0.00 | 0.00 | 57 | 1012.2 |
| 20260509153102 | 67 | 161 | 2.0 | 9.0 | 0.00 | 0.00 | 0.00 | 60 | 1012.1 |
| 20260509152550 | 66 | 158 | 1.0 | 7.0 | 0.00 | 0.00 | 0.00 | 58 | 1012.2 |
| 20260509152051 | 66 | 321 | 2.0 | 5.0 | 0.00 | 0.00 | 0.00 | 58 | 1012.1 |
| 20260509151554 | 65 | 157 | 2.0 | 6.0 | 0.00 | 0.00 | 0.00 | 61 | 1012.4 |
| 20260509151048 | 65 | 339 | 2.0 | 7.0 | 0.00 | 0.00 | 0.00 | 60 | 1012.4 |
| 20260509150551 | 64 | 209 | 3.0 | 8.0 | 0.00 | 0.00 | 0.00 | 59 | 1012.5 |
| 20260509150052 | 64 | 0 | 3.0 | 8.0 | 0.00 | 0.00 | 0.00 | 59 | 1012.5 |
| 20260509145553 | 64 | 295 | 4.0 | 8.0 | 0.00 | 0.00 | 0.00 | 59 | 1012.5 |
| 20260509145050 | 64 | 311 | 2.0 | 11.0 | 0.00 | 0.00 | 0.00 | 60 | 1012.5 |
| 20260509144558 | 64 | 292 | 4.0 | 11.0 | 0.00 | 0.00 | 0.00 | 58 | 1012.5 |
| 20260509144053 | 64 | 276 | 2.0 | 9.0 | 0.00 | 0.00 | 0.00 | 59 | 1012.6 |
| 20260509143550 | 63 | 0 | 4.0 | 9.0 | 0.00 | 0.00 | 0.00 | 61 | 1012.6 |
| 20260509143055 | 63 | 315 | 3.0 | 6.0 | 0.00 | 0.00 | 0.00 | 61 | 1012.4 |
| 20260509142550 | 62 | 315 | 1.0 | 5.0 | 0.00 | 0.00 | 0.00 | 61 | 1012.5 |
| 20260509142050 | 61 | 0 | 0.0 | 0.0 | 0.00 | 0.00 | 0.00 | 64 | 1012.5 |
| 20260509141552 | 61 | 0 | 0.0 | 0.0 | 0.00 | 0.00 | 0.00 | 63 | 1012.5 |
| 20260509141052 | 61 | 0 | 0.0 | 0.0 | 0.00 | 0.00 | 0.00 | 64 | 1012.6 |
| 20260509140548 | 60 | 0 | 0.0 | 4.0 | 0.00 | 0.00 | 0.00 | 63 | 1012.6 |
| 20260509140104 | 60 | 0 | 0.0 | 4.0 | 0.00 | 0.00 | 0.00 | 64 | 1012.7 |
| 20260509135548 | 60 | 182 | 1.0 | 5.0 | 0.00 | 0.00 | 0.00 | 64 | 1012.8 |
| 20260509135048 | 60 | 161 | 2.0 | 5.0 | 0.00 | 0.00 | 0.00 | 65 | 1013.0 |
| 20260509134551 | 59 | 0 | 0.0 | 3.0 | 0.00 | 0.00 | 0.00 | 66 | 1012.9 |
| 20260509134050 | 58 | 298 | 1.0 | 3.0 | 0.00 | 0.00 | 0.00 | 66 | 1013.0 |
| 20260509133548 | 58 | 32 | 1.0 | 3.0 | 0.00 | 0.00 | 0.00 | 65 | 1012.9 |
| 20260509133053 | 58 | 29 | 1.0 | 3.0 | 0.00 | 0.00 | 0.00 | 64 | 1012.9 |
| 20260509132554 | 58 | 269 | 0.0 | 2.0 | 0.00 | 0.00 | 0.00 | 67 | 1013.0 |
| 20260509132051 | 57 | 0 | 0.0 | 3.0 | 0.00 | 0.00 | 0.00 | 68 | 1013.0 |
| 20260509131550 | 57 | 0 | 1.0 | 3.0 | 0.00 | 0.00 | 0.00 | 67 | 1013.1 |
| 20260509131050 | 57 | 0 | 0.0 | 2.0 | 0.00 | 0.00 | 0.00 | 68 | 1013.2 |
| 20260509130551 | 57 | 0 | 0.0 | 3.0 | 0.00 | 0.00 | 0.00 | 71 | 1013.2 |
| 20260509130053 | 56 | 0 | 0.0 | 4.0 | 0.00 | 0.00 | 0.00 | 70 | 1013.2 |
| 20260509125550 | 56 | 294 | 1.0 | 4.0 | 0.00 | 0.00 | 0.00 | 69 | 1013.3 |
| 20260509125048 | 56 | 294 | 2.0 | 4.0 | 0.00 | 0.00 | 0.00 | 69 | 1013.4 |
| 20260509124552 | 56 | 309 | 2.0 | 5.0 | 0.00 | 0.00 | 0.00 | 69 | 1013.4 |
| 20260509124048 | 56 | 279 | 2.0 | 5.0 | 0.00 | 0.00 | 0.00 | 69 | 1013.4 |
| 20260509123552 | 56 | 306 | 3.0 | 5.0 | 0.00 | 0.00 | 0.00 | 68 | 1013.4 |
| 20260509123049 | 56 | 332 | 1.0 | 3.0 | 0.00 | 0.00 | 0.00 | 69 | 1013.4 |
| 20260509122551 | 56 | 0 | 1.0 | 3.0 | 0.00 | 0.00 | 0.00 | 69 | 1013.3 |
| 20260509122047 | 55 | 317 | 1.0 | 3.0 | 0.00 | 0.00 | 0.00 | 69 | 1013.3 |
| 20260509121551 | 55 | 319 | 0.0 | 2.0 | 0.00 | 0.00 | 0.00 | 71 | 1013.3 |
| 20260509121049 | 54 | 329 | 0.0 | 1.0 | 0.00 | 0.00 | 0.00 | 72 | 1013.5 |
| 20260509120549 | 54 | 0 | 0.0 | 0.0 | 0.00 | 0.00 | 0.00 | 77 | 1013.4 |
| 20260509120104 | 54 | 0 | 0.0 | 0.0 | 0.00 | 0.00 | 0.00 | 80 | 1013.4 |
| 20260509115548 | 53 | 0 | 0.0 | 0.0 | 0.00 | 0.00 | 0.00 | 81 | 1013.3 |
| 20260509115048 | 52 | 0 | 0.0 | 0.0 | 0.00 | 0.00 | 0.00 | 81 | 1013.3 |
| 20260509114549 | 52 | 0 | 0.0 | 2.0 | 0.00 | 0.00 | 0.00 | 81 | 1013.3 |
| 20260509114048 | 52 | 0 | 0.0 | 3.0 | 0.00 | 0.00 | 0.00 | 81 | 1013.3 |
| 20260509113548 | 51 | 308 | 1.0 | 3.0 | 0.00 | 0.00 | 0.00 | 80 | 1013.3 |
| 20260509113055 | 51 | 311 | 1.0 | 3.0 | 0.00 | 0.00 | 0.00 | 81 | 1013.3 |
| 20260509112548 | 51 | 337 | 0.0 | 3.0 | 0.00 | 0.00 | 0.00 | 80 | 1013.2 |
| 20260509112048 | 51 | 0 | 0.0 | 0.0 | 0.00 | 0.00 | 0.00 | 81 | 1013.2 |
| 20260509111552 | 51 | 0 | 0.0 | 0.0 | 0.00 | 0.00 | 0.00 | 79 | 1013.2 |
| 20260509111048 | 51 | 0 | 0.0 | 0.0 | 0.00 | 0.00 | 0.00 | 79 | 1013.1 |
| 20260509110549 | 51 | 0 | 0.0 | 0.0 | 0.00 | 0.00 | 0.00 | 79 | 1013.2 |
| 20260509110056 | 50 | 0 | 0.0 | 0.0 | 0.00 | 0.00 | 0.00 | 79 | 1013.1 |
| 20260509105551 | 50 | 0 | 0.0 | 0.0 | 0.00 | 0.00 | 0.00 | 78 | 1013.1 |
| 20260509105049 | 50 | 0 | 0.0 | 0.0 | 0.00 | 0.00 | 0.00 | 78 | 1013.1 |
| 20260509104548 | 50 | 0 | 0.0 | 0.0 | 0.00 | 0.00 | 0.00 | 77 | 1012.9 |
| 20260509104048 | 50 | 0 | 0.0 | 0.0 | 0.00 | 0.00 | 0.00 | 77 | 1013.0 |
| 20260509103548 | 50 | 0 | 0.0 | 0.0 | 0.00 | 0.00 | 0.00 | 77 | 1013.0 |
| 20260509103101 | 50 | 0 | 0.0 | 0.0 | 0.00 | 0.00 | 0.00 | 76 | 1013.1 |
| 20260509102548 | 51 | 0 | 0.0 | 0.0 | 0.00 | 0.00 | 0.00 | 76 | 1013.1 |
| 20260509102049 | 51 | 0 | 0.0 | 0.0 | 0.00 | 0.00 | 0.00 | 75 | 1013.1 |
| 20260509101559 | 51 | 0 | 0.0 | 0.0 | 0.00 | 0.00 | 0.00 | 75 | 1013.0 |
| 20260509101050 | 51 | 0 | 0.0 | 0.0 | 0.00 | 0.00 | 0.00 | 76 | 1013.0 |
| 20260509100548 | 51 | 0 | 0.0 | 0.0 | 0.00 | 0.00 | 0.00 | 72 | 1013.1 |
| 20260509100054 | 51 | 0 | 0.0 | 0.0 | 0.00 | 0.00 | 0.00 | 72 | 1013.0 |
| 20260509095548 | 51 | 0 | 0.0 | 0.0 | 0.00 | 0.00 | 0.00 | 74 | 1013.0 |
| 20260509095049 | 51 | 0 | 0.0 | 0.0 | 0.00 | 0.00 | 0.00 | 72 | 1013.0 |
| 20260509094552 | 51 | 0 | 0.0 | 0.0 | 0.00 | 0.00 | 0.00 | 71 | 1013.0 |
| 20260509094049 | 51 | 0 | 0.0 | 0.0 | 0.00 | 0.00 | 0.00 | 74 | 1013.0 |
| 20260509093548 | 51 | 0 | 0.0 | 0.0 | 0.00 | 0.00 | 0.00 | 73 | 1013.0 |
| 20260509093053 | 51 | 0 | 0.0 | 0.0 | 0.00 | 0.00 | 0.00 | 73 | 1012.9 |
| 20260509092552 | 51 | 0 | 0.0 | 0.0 | 0.00 | 0.00 | 0.00 | 73 | 1013.0 |
| 20260509092048 | 51 | 0 | 0.0 | 0.0 | 0.00 | 0.00 | 0.00 | 70 | 1013.1 |
| 20260509091619 | 52 | 0 | 0.0 | 0.0 | 0.00 | 0.00 | 0.00 | 71 | 1013.1 |
| 20260509091051 | 52 | 0 | 0.0 | 0.0 | 0.00 | 0.00 | 0.00 | 70 | 1013.2 |
| 20260509090551 | 52 | 0 | 0.0 | 0.0 | 0.00 | 0.00 | 0.00 | 70 | 1013.1 |
| 20260509090052 | 52 | 0 | 0.0 | 0.0 | 0.00 | 0.00 | 0.00 | 69 | 1013.2 |
| 20260509085548 | 52 | 0 | 0.0 | 3.0 | 0.00 | 0.00 | 0.00 | 67 | 1013.3 |
| 20260509085048 | 52 | 0 | 0.0 | 3.0 | 0.00 | 0.00 | 0.00 | 73 | 1013.3 |
| 20260509084552 | 53 | 329 | 1.0 | 3.0 | 0.00 | 0.00 | 0.00 | 70 | 1013.3 |
| 20260509084049 | 54 | 0 | 0.0 | 2.0 | 0.00 | 0.00 | 0.00 | 67 | 1013.4 |
| 20260509083548 | 54 | 0 | 0.0 | 2.0 | 0.00 | 0.00 | 0.00 | 63 | 1013.3 |
| 20260509083055 | 54 | 0 | 0.0 | 2.0 | 0.00 | 0.00 | 0.00 | 64 | 1013.4 |
| 20260509082548 | 54 | 0 | 0.0 | 2.0 | 0.00 | 0.00 | 0.00 | 62 | 1013.5 |
| 20260509082053 | 54 | 0 | 0.0 | 0.0 | 0.00 | 0.00 | 0.00 | 62 | 1013.5 |
| 20260509081556 | 55 | 0 | 0.0 | 2.0 | 0.00 | 0.00 | 0.00 | 61 | 1013.5 |
| 20260509081049 | 55 | 0 | 0.0 | 2.0 | 0.00 | 0.00 | 0.00 | 57 | 1013.5 |
| 20260509080548 | 56 | 267 | 0.0 | 3.0 | 0.00 | 0.00 | 0.00 | 56 | 1013.5 |
| 20260509080106 | 56 | 0 | 0.0 | 4.0 | 0.00 | 0.00 | 0.00 | 53 | 1013.6 |
| 20260509075548 | 56 | 294 | 2.0 | 4.0 | 0.00 | 0.00 | 0.00 | 53 | 1013.7 |
| 20260509075048 | 56 | 319 | 2.0 | 4.0 | 0.00 | 0.00 | 0.00 | 53 | 1013.6 |
| 20260509074601 | 57 | 323 | 2.0 | 5.0 | 0.00 | 0.00 | 0.00 | 53 | 1013.6 |
| 20260509074049 | 57 | 0 | 2.0 | 5.0 | 0.00 | 0.00 | 0.00 | 50 | 1013.6 |
| 20260509073549 | 57 | 321 | 2.0 | 4.0 | 0.00 | 0.00 | 0.00 | 52 | 1013.6 |
| 20260509073131 | 56 | 294 | 1.0 | 5.0 | 0.00 | 0.00 | 0.00 | 53 | 1013.7 |
| 20260509072553 | 56 | 333 | 2.0 | 6.0 | 0.00 | 0.00 | 0.00 | 55 | 1013.6 |
| 20260509072049 | 57 | 335 | 1.0 | 6.0 | 0.00 | 0.00 | 0.00 | 55 | 1013.6 |
| 20260509071559 | 57 | 304 | 1.0 | 5.0 | 0.00 | 0.00 | 0.00 | 52 | 1013.7 |
| 20260509071050 | 57 | 0 | 1.0 | 4.0 | 0.00 | 0.00 | 0.00 | 52 | 1013.6 |
| 20260509070549 | 56 | 90 | 1.0 | 5.0 | 0.00 | 0.00 | 0.00 | 53 | 1013.8 |
| 20260509070055 | 55 | 352 | 1.0 | 6.0 | 0.00 | 0.00 | 0.00 | 56 | 1013.8 |